owner,sensor,date,latitude,longitude,vertical_datum,wind_speed,wind_to_direction,wind_speed_of_gust,qcFlag 
TABS,ioos:station:wmo:42047:1,2017-11-01T00:00:00Z,27.8966,-93.5973,4.0,7.561937582,141.2813274,9.02,'11111222,11111222,11111222' 
TABS,ioos:station:wmo:42047:1,2017-11-01T00:30:00Z,27.8966,-93.5973,4.0,7.419521548,145.7105135,8.96,'11111222,11111222,11111222' 
TABS,ioos:station:wmo:42047:1,2017-11-01T01:00:00Z,27.8966,-93.5973,4.0,7.656552749,145.10636,9.11,'11111222,11111222,11111222' 
TABS,ioos:station:wmo:42047:1,2017-11-01T01:30:00Z,27.8966,-93.5973,4.0,7.535947187,146.8584887,8.82,'11111222,11111222,11111222' 
TABS,ioos:station:wmo:42047:1,2017-11-01T02:00:00Z,27.8966,-93.5973,4.0,8.706026648,146.383233,10.3,'11111222,11111222,11111222' 
TABS,ioos:station:wmo:42047:1,2017-11-01T02:30:00Z,27.8966,-93.5973,4.0,8.391007091,150.0436641,10.14,'11111222,11111222,11111222' 
TABS,ioos:station:wmo:42047:1,2017-11-01T03:00:00Z,27.8966,-93.5973,4.0,8.433563897,155.1065035,10.48,'11111222,11111222,11111222' 
TABS,ioos:station:wmo:42047:1,2017-11-01T03:30:00Z,27.8966,-93.5973,4.0,8.345352,152.9132498,9.74,'11111222,11111222,11111222' 
TABS,ioos:station:wmo:42047:1,2017-11-01T04:00:00Z,27.8966,-93.5973,4.0,8.12070194,147.7780158,9.98,'11111222,11111222,11111222' 
TABS,ioos:station:wmo:42047:1,2017-11-01T04:30:00Z,27.8966,-93.5973,4.0,8.777539519,149.4619258,10.69,'11111222,11111222,11111222' 
TABS,ioos:station:wmo:42047:1,2017-11-01T05:00:00Z,27.8966,-93.5973,4.0,8.708111161,142.8408966,10.66,'11111222,11111222,11111222' 
TABS,ioos:station:wmo:42047:1,2017-11-01T05:30:00Z,27.8966,-93.5973,4.0,7.179310552,141.3903474,8.64,'11111222,11111222,11111222' 
TABS,ioos:station:wmo:42047:1,2017-11-01T06:00:00Z,27.8966,-93.5973,4.0,8.957789906,156.5833101,11.09,'11111222,11111222,11111222' 
TABS,ioos:station:wmo:42047:1,2017-11-01T06:30:00Z,27.8966,-93.5973,4.0,9.242104739,149.2172691,11.12,'11111222,11111222,11111222' 
TABS,ioos:station:wmo:42047:1,2017-11-01T07:00:00Z,27.8966,-93.5973,4.0,9.442976226,150.6392204,10.73,'11111222,11111222,11111222' 
TABS,ioos:station:wmo:42047:1,2017-11-01T07:30:00Z,27.8966,-93.5973,4.0,8.683530388,151.9006201,10.35,'11111222,11111222,11111222' 
TABS,ioos:station:wmo:42047:1,2017-11-01T08:00:00Z,27.8966,-93.5973,4.0,8.786700177,171.4920348,10.58,'11111222,11111222,11111222' 
TABS,ioos:station:wmo:42047:1,2017-11-01T08:30:00Z,27.8966,-93.5973,4.0,9.237710755,170.8438105,10.78,'11111222,11111222,11111222' 
TABS,ioos:station:wmo:42047:1,2017-11-01T09:00:00Z,27.8966,-93.5973,4.0,9.338447408,174.1614254,10.93,'11111222,11111222,11111222' 
TABS,ioos:station:wmo:42047:1,2017-11-01T09:30:00Z,27.8966,-93.5973,4.0,10.37433853,166.7945075,12.33,'11111222,11111222,11111222' 
TABS,ioos:station:wmo:42047:1,2017-11-01T10:00:00Z,27.8966,-93.5973,4.0,10.59326673,163.9434108,12.46,'11111222,11111222,11111222' 
TABS,ioos:station:wmo:42047:1,2017-11-01T10:30:00Z,27.8966,-93.5973,4.0,10.38000482,164.8661573,11.69,'11111222,11111222,11111222' 
TABS,ioos:station:wmo:42047:1,2017-11-01T11:00:00Z,27.8966,-93.5973,4.0,9.872345213,165.091259,11.78,'11111222,11111222,11111222' 
TABS,ioos:station:wmo:42047:1,2017-11-01T11:30:00Z,27.8966,-93.5973,4.0,9.528740735,160.8237165,11.69,'11111222,11111222,11111222' 
TABS,ioos:station:wmo:42047:1,2017-11-01T12:00:00Z,27.8966,-93.5973,4.0,10.36207026,173.2387047,12.15,'11111222,11111222,11111222' 
TABS,ioos:station:wmo:42047:1,2017-11-01T12:30:00Z,27.8966,-93.5973,4.0,11.02379699,168.4354776,12.49,'11111222,11111222,11111222' 
TABS,ioos:station:wmo:42047:1,2017-11-01T13:00:00Z,27.8966,-93.5973,4.0,11.43556732,171.5016715,13.44,'11111222,11111222,11111222' 
TABS,ioos:station:wmo:42047:1,2017-11-01T13:30:00Z,27.8966,-93.5973,4.0,10.84472222,171.3022702,12.34,'11111222,11111222,11111222' 
TABS,ioos:station:wmo:42047:1,2017-11-01T14:00:00Z,27.8966,-93.5973,4.0,9.819149658,171.4492679,11.99,'11111222,11111222,11111222' 
TABS,ioos:station:wmo:42047:1,2017-11-01T14:30:00Z,27.8966,-93.5973,4.0,10.0727603,170.6875314,11.65,'11111222,11111222,11111222' 
TABS,ioos:station:wmo:42047:1,2017-11-01T15:00:00Z,27.8966,-93.5973,4.0,10.08414597,172.5933157,11.99,'11111222,11111222,11111222' 
TABS,ioos:station:wmo:42047:1,2017-11-01T15:30:00Z,27.8966,-93.5973,4.0,9.776420613,172.8315957,11.8,'11111222,11111222,11111222' 
TABS,ioos:station:wmo:42047:1,2017-11-01T16:00:00Z,27.8966,-93.5973,4.0,9.516538236,174.331566,11.38,'11111222,11111222,11111222' 
TABS,ioos:station:wmo:42047:1,2017-11-01T16:30:00Z,27.8966,-93.5973,4.0,8.809545959,177.3326833,10.25,'11111222,11111222,11111222' 
TABS,ioos:station:wmo:42047:1,2017-11-01T17:00:00Z,27.8966,-93.5973,4.0,8.801511234,177.0695448,10.75,'11111222,11111222,11111222' 
TABS,ioos:station:wmo:42047:1,2017-11-01T17:30:00Z,27.8966,-93.5973,4.0,9.720869303,180.7664646,11.16,'11111222,11111222,11111222' 
TABS,ioos:station:wmo:42047:1,2017-11-01T18:00:00Z,27.8966,-93.5973,4.0,9.335834189,182.0259001,11.13,'11111222,11111222,11111222' 
TABS,ioos:station:wmo:42047:1,2017-11-01T18:30:00Z,27.8966,-93.5973,4.0,9.7213425,184.6023212,11.64,'11111222,11111222,11111222' 
TABS,ioos:station:wmo:42047:1,2017-11-01T19:00:00Z,27.8966,-93.5973,4.0,9.656603958,184.9904996,11.34,'11111222,11111222,11111222' 
TABS,ioos:station:wmo:42047:1,2017-11-01T19:30:00Z,27.8966,-93.5973,4.0,9.14595539,183.3850567,11.16,'11111222,11111222,11111222' 
TABS,ioos:station:wmo:42047:1,2017-11-01T20:00:00Z,27.8966,-93.5973,4.0,9.311675467,185.4230287,11.22,'11111222,11111222,11111222' 
TABS,ioos:station:wmo:42047:1,2017-11-01T20:30:00Z,27.8966,-93.5973,4.0,9.434219629,186.1458928,11.19,'11111222,11111222,11111222' 
TABS,ioos:station:wmo:42047:1,2017-11-01T21:00:00Z,27.8966,-93.5973,4.0,9.015680784,184.3257933,10.19,'11111222,11111222,11111222' 
TABS,ioos:station:wmo:42047:1,2017-11-01T21:30:00Z,27.8966,-93.5973,4.0,8.936330343,183.4645529,10.27,'11111222,11111222,11111222' 
TABS,ioos:station:wmo:42047:1,2017-11-01T22:00:00Z,27.8966,-93.5973,4.0,8.780820007,180.7832457,10.41,'11111222,11111222,11111222' 
TABS,ioos:station:wmo:42047:1,2017-11-01T22:30:00Z,27.8966,-93.5973,4.0,8.968054416,182.4287044,10.22,'11111222,11111222,11111222' 
TABS,ioos:station:wmo:42047:1,2017-11-01T23:00:00Z,27.8966,-93.5973,4.0,8.55178344,184.0905911,10.05,'11111222,11111222,11111222' 
TABS,ioos:station:wmo:42047:1,2017-11-01T23:30:00Z,27.8966,-93.5973,4.0,7.735069489,177.9257254,8.85,'11111222,11111222,11111222' 
TABS,ioos:station:wmo:42047:1,2017-11-02T00:00:00Z,27.8966,-93.5973,4.0,8.154734821,176.5553666,9.78,'11111222,11111222,11111222' 
TABS,ioos:station:wmo:42047:1,2017-11-02T00:30:00Z,27.8966,-93.5973,4.0,8.204151388,174.0533613,9.65,'11111222,11111222,11111222' 
TABS,ioos:station:wmo:42047:1,2017-11-02T01:00:00Z,27.8966,-93.5973,4.0,8.392615802,176.8582567,10.11,'11111222,11111222,11111222' 
TABS,ioos:station:wmo:42047:1,2017-11-02T01:30:00Z,27.8966,-93.5973,4.0,9.365431117,166.8543034,14.5,'11111222,11111222,11111222' 
TABS,ioos:station:wmo:42047:1,2017-11-02T02:00:00Z,27.8966,-93.5973,4.0,9.424871352,175.0699792,11.03,'11111222,11111222,11111222' 
TABS,ioos:station:wmo:42047:1,2017-11-02T02:30:00Z,27.8966,-93.5973,4.0,9.440307198,173.0031866,11.0,'11111222,11111222,11111222' 
TABS,ioos:station:wmo:42047:1,2017-11-02T03:00:00Z,27.8966,-93.5973,4.0,9.951828978,171.7968487,11.36,'11111222,11111222,11111222' 
TABS,ioos:station:wmo:42047:1,2017-11-02T03:30:00Z,27.8966,-93.5973,4.0,9.722756811,170.1697662,10.84,'11111222,11111222,11111222' 
TABS,ioos:station:wmo:42047:1,2017-11-02T04:00:00Z,27.8966,-93.5973,4.0,9.94523504,168.3400495,11.74,'11111222,11111222,11111222' 
TABS,ioos:station:wmo:42047:1,2017-11-02T04:30:00Z,27.8966,-93.5973,4.0,9.62252046,170.1267749,11.24,'11111222,11111222,11111222' 
TABS,ioos:station:wmo:42047:1,2017-11-02T05:00:00Z,27.8966,-93.5973,4.0,9.318245543,169.4259059,11.06,'11111222,11111222,11111222' 
TABS,ioos:station:wmo:42047:1,2017-11-02T05:30:00Z,27.8966,-93.5973,4.0,9.158738996,166.6164379,10.82,'11111222,11111222,11111222' 
TABS,ioos:station:wmo:42047:1,2017-11-02T06:00:00Z,27.8966,-93.5973,4.0,8.955199607,169.3176955,10.61,'11111222,11111222,11111222' 
TABS,ioos:station:wmo:42047:1,2017-11-02T06:30:00Z,27.8966,-93.5973,4.0,9.031068597,169.8599488,10.19,'11111222,11111222,11111222' 
TABS,ioos:station:wmo:42047:1,2017-11-02T07:00:00Z,27.8966,-93.5973,4.0,8.925721259,169.2819985,10.18,'11111222,11111222,11111222' 
TABS,ioos:station:wmo:42047:1,2017-11-02T07:30:00Z,27.8966,-93.5973,4.0,9.056826155,170.7875177,10.5,'11111222,11111222,11111222' 
TABS,ioos:station:wmo:42047:1,2017-11-02T08:00:00Z,27.8966,-93.5973,4.0,8.455915089,169.7135695,9.87,'11111222,11111222,11111222' 
TABS,ioos:station:wmo:42047:1,2017-11-02T08:30:00Z,27.8966,-93.5973,4.0,8.152944253,169.2553863,9.52,'11111222,11111222,11111222' 
TABS,ioos:station:wmo:42047:1,2017-11-02T09:00:00Z,27.8966,-93.5973,4.0,8.278900893,171.596081,9.66,'11111222,11111222,11111222' 
TABS,ioos:station:wmo:42047:1,2017-11-02T09:30:00Z,27.8966,-93.5973,4.0,8.839966063,170.953475,10.56,'11111222,11111222,11111222' 
TABS,ioos:station:wmo:42047:1,2017-11-02T10:00:00Z,27.8966,-93.5973,4.0,9.407082438,174.2653888,10.8,'11111222,11111222,11111222' 
TABS,ioos:station:wmo:42047:1,2017-11-02T10:30:00Z,27.8966,-93.5973,4.0,8.852491175,173.1882986,11.11,'11111222,11111222,11111222' 
TABS,ioos:station:wmo:42047:1,2017-11-02T11:00:00Z,27.8966,-93.5973,4.0,8.060750585,179.2183085,9.51,'11111222,11111222,11111222' 
TABS,ioos:station:wmo:42047:1,2017-11-02T11:30:00Z,27.8966,-93.5973,4.0,7.500959939,179.0835583,8.69,'11111222,11111222,11111222' 
TABS,ioos:station:wmo:42047:1,2017-11-02T12:00:00Z,27.8966,-93.5973,4.0,7.151181721,175.5892255,8.53,'11111222,11111222,11111222' 
TABS,ioos:station:wmo:42047:1,2017-11-02T12:30:00Z,27.8966,-93.5973,4.0,7.263642337,181.8147549,8.6,'11111222,11111222,11111222' 
TABS,ioos:station:wmo:42047:1,2017-11-02T13:00:00Z,27.8966,-93.5973,4.0,7.487275873,182.5263215,8.87,'11111222,11111222,11111222' 
TABS,ioos:station:wmo:42047:1,2017-11-02T13:30:00Z,27.8966,-93.5973,4.0,6.548358573,175.7088859,7.93,'11111222,11111222,11111222' 
TABS,ioos:station:wmo:42047:1,2017-11-02T14:00:00Z,27.8966,-93.5973,4.0,6.809735678,172.4055848,8.08,'11111222,11111222,11111222' 
TABS,ioos:station:wmo:42047:1,2017-11-02T14:30:00Z,27.8966,-93.5973,4.0,6.667008325,172.5021281,8.15,'11111222,11111222,11111222' 
TABS,ioos:station:wmo:42047:1,2017-11-02T15:00:00Z,27.8966,-93.5973,4.0,6.130424129,163.9007972,7.62,'11111222,11111222,11111222' 
TABS,ioos:station:wmo:42047:1,2017-11-02T15:30:00Z,27.8966,-93.5973,4.0,6.976854592,163.5133852,7.92,'11111222,11111222,11111222' 
TABS,ioos:station:wmo:42047:1,2017-11-02T16:00:00Z,27.8966,-93.5973,4.0,6.697835471,167.1466829,8.14,'11111222,11111222,11111222' 
TABS,ioos:station:wmo:42047:1,2017-11-02T16:30:00Z,27.8966,-93.5973,4.0,7.340878694,169.1648234,8.32,'11111222,11111222,11111222' 
TABS,ioos:station:wmo:42047:1,2017-11-02T17:00:00Z,27.8966,-93.5973,4.0,7.051141752,170.2840959,8.38,'11111222,11111222,11111222' 
TABS,ioos:station:wmo:42047:1,2017-11-02T17:30:00Z,27.8966,-93.5973,4.0,7.229495141,172.0494556,8.45,'11111222,11111222,11111222' 
TABS,ioos:station:wmo:42047:1,2017-11-02T18:00:00Z,27.8966,-93.5973,4.0,7.313309784,169.0436922,8.67,'11111222,11111222,11111222' 
TABS,ioos:station:wmo:42047:1,2017-11-02T18:30:00Z,27.8966,-93.5973,4.0,7.030796541,168.5145024,8.01,'11111222,11111222,11111222' 
TABS,ioos:station:wmo:42047:1,2017-11-02T19:00:00Z,27.8966,-93.5973,4.0,7.053006451,166.2201341,8.48,'11111222,11111222,11111222' 
TABS,ioos:station:wmo:42047:1,2017-11-02T19:30:00Z,27.8966,-93.5973,4.0,6.94769746,164.0435241,7.71,'11111222,11111222,11111222' 
TABS,ioos:station:wmo:42047:1,2017-11-02T20:00:00Z,27.8966,-93.5973,4.0,6.955875215,167.4624978,8.14,'11111222,11111222,11111222' 
TABS,ioos:station:wmo:42047:1,2017-11-02T20:30:00Z,27.8966,-93.5973,4.0,6.714052428,165.1567808,7.86,'11111222,11111222,11111222' 
TABS,ioos:station:wmo:42047:1,2017-11-02T21:00:00Z,27.8966,-93.5973,4.0,7.173234975,163.5611253,8.19,'11111222,11111222,11111222' 
TABS,ioos:station:wmo:42047:1,2017-11-02T21:30:00Z,27.8966,-93.5973,4.0,7.095864993,167.2174481,8.35,'11111222,11111222,11111222' 
TABS,ioos:station:wmo:42047:1,2017-11-02T22:00:00Z,27.8966,-93.5973,4.0,6.933815688,162.9764996,8.17,'11111222,11111222,11111222' 
TABS,ioos:station:wmo:42047:1,2017-11-02T22:30:00Z,27.8966,-93.5973,4.0,7.165821656,161.868721,8.5,'11111222,11111222,11111222' 
TABS,ioos:station:wmo:42047:1,2017-11-02T23:00:00Z,27.8966,-93.5973,4.0,6.907691365,160.4636012,8.07,'11111222,11111222,11111222' 
TABS,ioos:station:wmo:42047:1,2017-11-02T23:30:00Z,27.8966,-93.5973,4.0,6.727711349,155.8734832,7.92,'11111222,11111222,11111222' 
TABS,ioos:station:wmo:42047:1,2017-11-03T00:00:00Z,27.8966,-93.5973,4.0,7.139523794,159.3315007,8.27,'11111222,11111222,11111222' 
TABS,ioos:station:wmo:42047:1,2017-11-03T00:30:00Z,27.8966,-93.5973,4.0,7.365717888,153.1221336,8.51,'11111222,11111222,11111222' 
TABS,ioos:station:wmo:42047:1,2017-11-03T01:00:00Z,27.8966,-93.5973,4.0,7.617151699,154.4108016,8.97,'11111222,11111222,11111222' 
TABS,ioos:station:wmo:42047:1,2017-11-03T01:30:00Z,27.8966,-93.5973,4.0,6.783251433,161.9659671,8.26,'11111222,11111222,11111222' 
TABS,ioos:station:wmo:42047:1,2017-11-03T02:00:00Z,27.8966,-93.5973,4.0,7.191168194,159.8265516,8.58,'11111222,11111222,11111222' 
TABS,ioos:station:wmo:42047:1,2017-11-03T02:30:00Z,27.8966,-93.5973,4.0,7.483909406,157.6159635,8.67,'11111222,11111222,11111222' 
TABS,ioos:station:wmo:42047:1,2017-11-03T03:00:00Z,27.8966,-93.5973,4.0,6.840328939,162.1215557,8.03,'11111222,11111222,11111222' 
TABS,ioos:station:wmo:42047:1,2017-11-03T03:30:00Z,27.8966,-93.5973,4.0,6.993210994,159.4921594,8.02,'11111222,11111222,11111222' 
TABS,ioos:station:wmo:42047:1,2017-11-03T04:00:00Z,27.8966,-93.5973,4.0,6.360196538,157.8308266,7.88,'11111222,11111222,11111222' 
TABS,ioos:station:wmo:42047:1,2017-11-03T04:30:00Z,27.8966,-93.5973,4.0,6.215223246,158.1817334,7.49,'11111222,11111222,11111222' 
TABS,ioos:station:wmo:42047:1,2017-11-03T05:00:00Z,27.8966,-93.5973,4.0,7.306572384,162.8052766,8.79,'11111222,11111222,11111222' 
TABS,ioos:station:wmo:42047:1,2017-11-03T05:30:00Z,27.8966,-93.5973,4.0,6.505397759,170.175926,8.07,'11111222,11111222,11111222' 
TABS,ioos:station:wmo:42047:1,2017-11-03T06:00:00Z,27.8966,-93.5973,4.0,7.162995184,171.8135668,8.22,'11111222,11111222,11111222' 
TABS,ioos:station:wmo:42047:1,2017-11-03T06:30:00Z,27.8966,-93.5973,4.0,7.715834368,177.771932,8.91,'11111222,11111222,11111222' 
TABS,ioos:station:wmo:42047:1,2017-11-03T07:00:00Z,27.8966,-93.5973,4.0,7.553442924,174.6066367,8.56,'11111222,11111222,11111222' 
TABS,ioos:station:wmo:42047:1,2017-11-03T07:30:00Z,27.8966,-93.5973,4.0,7.704187173,175.4589183,8.89,'11111222,11111222,11111222' 
TABS,ioos:station:wmo:42047:1,2017-11-03T08:00:00Z,27.8966,-93.5973,4.0,7.9833389,175.6180287,9.28,'11111222,11111222,11111222' 
TABS,ioos:station:wmo:42047:1,2017-11-03T08:30:00Z,27.8966,-93.5973,4.0,7.482365936,176.7057032,8.79,'11111222,11111222,11111222' 
TABS,ioos:station:wmo:42047:1,2017-11-03T09:00:00Z,27.8966,-93.5973,4.0,6.826419266,185.0426497,8.25,'11111222,11111222,11111222' 
TABS,ioos:station:wmo:42047:1,2017-11-03T09:30:00Z,27.8966,-93.5973,4.0,6.410631794,180.8046206,7.59,'11111222,11111222,11111222' 
TABS,ioos:station:wmo:42047:1,2017-11-03T10:00:00Z,27.8966,-93.5973,4.0,5.86533034,182.4430826,7.32,'11111222,11111222,11111222' 
TABS,ioos:station:wmo:42047:1,2017-11-03T10:30:00Z,27.8966,-93.5973,4.0,5.261150064,178.8021872,6.58,'11111222,11111222,11111222' 
TABS,ioos:station:wmo:42047:1,2017-11-03T11:00:00Z,27.8966,-93.5973,4.0,5.350186913,176.4639653,6.31,'11111222,11111222,11111222' 
TABS,ioos:station:wmo:42047:1,2017-11-03T11:30:00Z,27.8966,-93.5973,4.0,5.012943247,175.8820304,6.15,'11111222,11111222,11111222' 
TABS,ioos:station:wmo:42047:1,2017-11-03T12:00:00Z,27.8966,-93.5973,4.0,5.165510623,175.5589797,6.19,'11111222,11111222,11111222' 
TABS,ioos:station:wmo:42047:1,2017-11-03T12:30:00Z,27.8966,-93.5973,4.0,4.373705523,182.3588809,5.62,'11111222,11111222,11111222' 
TABS,ioos:station:wmo:42047:1,2017-11-03T13:00:00Z,27.8966,-93.5973,4.0,4.471353263,178.590535,5.47,'11111222,11111222,11111222' 
TABS,ioos:station:wmo:42047:1,2017-11-03T13:30:00Z,27.8966,-93.5973,4.0,4.291410025,181.4690077,5.14,'11111222,11111222,11111222' 
TABS,ioos:station:wmo:42047:1,2017-11-03T14:00:00Z,27.8966,-93.5973,4.0,4.1175721,174.7050099,4.77,'11111222,11111222,11111222' 
TABS,ioos:station:wmo:42047:1,2017-11-03T14:30:00Z,27.8966,-93.5973,4.0,3.720860116,178.7682359,4.33,'11111222,11111222,11111222' 
TABS,ioos:station:wmo:42047:1,2017-11-03T15:00:00Z,27.8966,-93.5973,4.0,3.699351294,169.7230939,4.2,'11111222,11111222,11111222' 
TABS,ioos:station:wmo:42047:1,2017-11-03T15:30:00Z,27.8966,-93.5973,4.0,4.35353879,165.772483,5.06,'11111222,11111222,11111222' 
TABS,ioos:station:wmo:42047:1,2017-11-03T16:00:00Z,27.8966,-93.5973,4.0,4.041831268,171.7498425,4.62,'11111222,11111222,11111222' 
TABS,ioos:station:wmo:42047:1,2017-11-03T16:30:00Z,27.8966,-93.5973,4.0,4.247964218,168.3199776,4.9,'11111222,11111222,11111222' 
TABS,ioos:station:wmo:42047:1,2017-11-03T17:00:00Z,27.8966,-93.5973,4.0,4.082560471,161.8759675,4.7,'11111222,11111222,11111222' 
TABS,ioos:station:wmo:42047:1,2017-11-03T17:30:00Z,27.8966,-93.5973,4.0,4.029900743,146.2313565,4.68,'11111222,11111222,11111222' 
TABS,ioos:station:wmo:42047:1,2017-11-03T18:00:00Z,27.8966,-93.5973,4.0,4.289533774,152.3599341,5.19,'11111222,11111222,11111222' 
TABS,ioos:station:wmo:42047:1,2017-11-03T18:30:00Z,27.8966,-93.5973,4.0,4.354503416,146.7116496,5.18,'11111222,11111222,11111222' 
TABS,ioos:station:wmo:42047:1,2017-11-03T19:00:00Z,27.8966,-93.5973,4.0,4.152168108,145.6978667,4.92,'11111222,11111222,11111222' 
TABS,ioos:station:wmo:42047:1,2017-11-03T19:30:00Z,27.8966,-93.5973,4.0,4.473209139,148.1578277,5.51,'11111222,11111222,11111222' 
TABS,ioos:station:wmo:42047:1,2017-11-03T20:00:00Z,27.8966,-93.5973,4.0,4.037078151,155.7207525,5.23,'11111222,11111222,11111222' 
TABS,ioos:station:wmo:42047:1,2017-11-03T20:30:00Z,27.8966,-93.5973,4.0,4.136786192,149.6541172,5.27,'11111222,11111222,11111222' 
TABS,ioos:station:wmo:42047:1,2017-11-03T21:00:00Z,27.8966,-93.5973,4.0,3.939606579,159.4952789,4.97,'11111222,11111222,11111222' 
TABS,ioos:station:wmo:42047:1,2017-11-03T21:30:00Z,27.8966,-93.5973,4.0,3.852544614,155.297838,4.66,'11111222,11111222,11111222' 
TABS,ioos:station:wmo:42047:1,2017-11-03T22:00:00Z,27.8966,-93.5973,4.0,4.086477701,164.0933699,4.83,'11111222,11111222,11111222' 
TABS,ioos:station:wmo:42047:1,2017-11-03T22:30:00Z,27.8966,-93.5973,4.0,3.675282302,148.6889602,4.56,'11111222,11111222,11111222' 
TABS,ioos:station:wmo:42047:1,2017-11-03T23:00:00Z,27.8966,-93.5973,4.0,3.781904282,138.2157922,4.6,'11111222,11111222,11111222' 
TABS,ioos:station:wmo:42047:1,2017-11-03T23:30:00Z,27.8966,-93.5973,4.0,3.936343481,126.1133217,4.78,'11111222,11111222,11111222' 
TABS,ioos:station:wmo:42047:1,2017-11-04T00:00:00Z,27.8966,-93.5973,4.0,3.691679834,123.1738589,4.72,'11111222,11111222,11111222' 
TABS,ioos:station:wmo:42047:1,2017-11-04T00:30:00Z,27.8966,-93.5973,4.0,4.192374029,119.7452327,5.02,'11111222,11111222,11111222' 
TABS,ioos:station:wmo:42047:1,2017-11-04T01:00:00Z,27.8966,-93.5973,4.0,4.222842644,115.2303718,5.4,'11111222,11111222,11111222' 
TABS,ioos:station:wmo:42047:1,2017-11-04T01:30:00Z,27.8966,-93.5973,4.0,3.933255649,124.5388727,4.74,'11111222,11111222,11111222' 
TABS,ioos:station:wmo:42047:1,2017-11-04T02:00:00Z,27.8966,-93.5973,4.0,2.986050904,121.7209822,4.0,'11111222,11111222,11111222' 
TABS,ioos:station:wmo:42047:1,2017-11-04T02:30:00Z,27.8966,-93.5973,4.0,4.101438772,134.4076233,4.84,'11111222,11111222,11111222' 
TABS,ioos:station:wmo:42047:1,2017-11-04T03:00:00Z,27.8966,-93.5973,4.0,4.123311776,144.5756885,4.98,'11111222,11111222,11111222' 
TABS,ioos:station:wmo:42047:1,2017-11-04T03:30:00Z,27.8966,-93.5973,4.0,5.463863102,155.4521706,6.58,'11111222,11111222,11111222' 
TABS,ioos:station:wmo:42047:1,2017-11-04T04:00:00Z,27.8966,-93.5973,4.0,5.865168369,159.9587283,7.01,'11111222,11111222,11111222' 
TABS,ioos:station:wmo:42047:1,2017-11-04T04:30:00Z,27.8966,-93.5973,4.0,6.202717147,160.3091507,7.2,'11111222,11111222,11111222' 
TABS,ioos:station:wmo:42047:1,2017-11-04T05:00:00Z,27.8966,-93.5973,4.0,6.242595614,162.087743,7.32,'11111222,11111222,11111222' 
TABS,ioos:station:wmo:42047:1,2017-11-04T05:30:00Z,27.8966,-93.5973,4.0,5.831912208,162.4352368,6.54,'11111222,11111222,11111222' 
TABS,ioos:station:wmo:42047:1,2017-11-04T06:00:00Z,27.8966,-93.5973,4.0,5.734457254,168.5335452,6.86,'11111222,11111222,11111222' 
TABS,ioos:station:wmo:42047:1,2017-11-04T06:30:00Z,27.8966,-93.5973,4.0,5.636896309,162.9797246,6.78,'11111222,11111222,11111222' 
TABS,ioos:station:wmo:42047:1,2017-11-04T07:00:00Z,27.8966,-93.5973,4.0,6.55463195,160.0171507,8.08,'11111222,11111222,11111222' 
TABS,ioos:station:wmo:42047:1,2017-11-04T07:30:00Z,27.8966,-93.5973,4.0,6.891226306,158.4613201,7.93,'11111222,11111222,11111222' 
TABS,ioos:station:wmo:42047:1,2017-11-04T08:00:00Z,27.8966,-93.5973,4.0,7.066463047,164.8233515,8.46,'11111222,11111222,11111222' 
TABS,ioos:station:wmo:42047:1,2017-11-04T08:30:00Z,27.8966,-93.5973,4.0,6.631387487,161.2647581,7.87,'11111222,11111222,11111222' 
TABS,ioos:station:wmo:42047:1,2017-11-04T09:00:00Z,27.8966,-93.5973,4.0,6.809853156,158.8238138,7.96,'11111222,11111222,11111222' 
TABS,ioos:station:wmo:42047:1,2017-11-04T09:30:00Z,27.8966,-93.5973,4.0,6.582400778,163.7678978,7.95,'11111222,11111222,11111222' 
TABS,ioos:station:wmo:42047:1,2017-11-04T10:00:00Z,27.8966,-93.5973,4.0,6.386000313,163.7220996,7.46,'11111222,11111222,11111222' 
TABS,ioos:station:wmo:42047:1,2017-11-04T10:30:00Z,27.8966,-93.5973,4.0,6.208969319,166.2101905,7.07,'11111222,11111222,11111222' 
TABS,ioos:station:wmo:42047:1,2017-11-04T11:00:00Z,27.8966,-93.5973,4.0,5.434740104,163.0990475,6.45,'11111222,11111222,11111222' 
TABS,ioos:station:wmo:42047:1,2017-11-04T11:30:00Z,27.8966,-93.5973,4.0,5.954569674,161.5957326,6.78,'11111222,11111222,11111222' 
TABS,ioos:station:wmo:42047:1,2017-11-04T12:00:00Z,27.8966,-93.5973,4.0,5.546386211,156.8559314,6.69,'11111222,11111222,11111222' 
TABS,ioos:station:wmo:42047:1,2017-11-04T12:30:00Z,27.8966,-93.5973,4.0,5.389341333,154.1484084,6.48,'11111222,11111222,11111222' 
TABS,ioos:station:wmo:42047:1,2017-11-04T13:00:00Z,27.8966,-93.5973,4.0,5.577902832,156.8826002,6.69,'11111222,11111222,11111222' 
TABS,ioos:station:wmo:42047:1,2017-11-04T13:30:00Z,27.8966,-93.5973,4.0,5.214182582,156.7295316,6.05,'11111222,11111222,11111222' 
TABS,ioos:station:wmo:42047:1,2017-11-04T14:00:00Z,27.8966,-93.5973,4.0,5.719694048,149.5347368,6.87,'11111222,11111222,11111222' 
TABS,ioos:station:wmo:42047:1,2017-11-04T14:30:00Z,27.8966,-93.5973,4.0,5.89185879,150.737877,6.75,'11111222,11111222,11111222' 
TABS,ioos:station:wmo:42047:1,2017-11-04T15:00:00Z,27.8966,-93.5973,4.0,6.299245987,149.3641047,7.72,'11111222,11111222,11111222' 
TABS,ioos:station:wmo:42047:1,2017-11-04T15:30:00Z,27.8966,-93.5973,4.0,6.596438433,148.2619054,7.56,'11111222,11111222,11111222' 
TABS,ioos:station:wmo:42047:1,2017-11-04T16:00:00Z,27.8966,-93.5973,4.0,6.163537945,156.6796129,6.9,'11111222,11111222,11111222' 
TABS,ioos:station:wmo:42047:1,2017-11-04T16:30:00Z,27.8966,-93.5973,4.0,6.007204009,152.3261367,6.97,'11111222,11111222,11111222' 
TABS,ioos:station:wmo:42047:1,2017-11-04T17:00:00Z,27.8966,-93.5973,4.0,6.013127306,157.614945,7.28,'11111222,11111222,11111222' 
TABS,ioos:station:wmo:42047:1,2017-11-04T17:30:00Z,27.8966,-93.5973,4.0,5.661881313,158.0109364,6.46,'11111222,11111222,11111222' 
TABS,ioos:station:wmo:42047:1,2017-11-04T18:00:00Z,27.8966,-93.5973,4.0,5.240314876,160.8392069,6.38,'11111222,11111222,11111222' 
TABS,ioos:station:wmo:42047:1,2017-11-04T18:30:00Z,27.8966,-93.5973,4.0,5.831363477,166.9172504,7.07,'11111222,11111222,11111222' 